CAPE
0 0 0 8 10 8 8 9 6 7 2 0 2 1 1 1 15 0 0 0 2 2 2 1 5 11 7 6 7 3 2 14 7 9 2 46 55 58
0 0 0 22 19 5 6 15 6 13 15 0 0 1 13 13 18 0 0 0 0 1 1 4 6 2 1 1 1 6 7 4 6 3 3 1 6 10
0 0 1 9 21 13 2 9 6 6 7 0 0 1 4 17 5 0 0 0 0 1 2 2 2 4 2 3 1 1 1 1 1 0 1 1 0 0
0 0 0 12 24 4 4 6 5 3 5 2 0 0 3 23 3 0 0 0 0 2 2 0 2 2 2 2 3 0 0 0 1 1 2 1 1 0
0 11 3 14 3 3 6 4 0 0 0 2 0 0 0 1 0 0 0 0 0 1 1 0 0 2 3 4 4 5 2 0 0 0 0 0 0 0
0 8 0 0 7 27 3 0 0 0 0 3 2 0 2 0 0 0 0 0 0 0 0 2 0 0 3 6 7 8 7 0 0 0 0 1 0 0
0 5 6 6 33 25 0 0 0 0 0 1 5 14 0 0 0 0 0 0 0 2 0 2 0 0 3 4 8 6 1 0 0 0 0 0 18 79
0 1 2 6 16 0 0 0 0 0 0 0 4 2 0 0 0 0 0 0 0 0 2 2 0 0 2 4 5 5 3 1 0 0 0 0 0 0
2 3 5 0 6 0 0 0 0 0 0 9 2 0 0 0 0 0 0 1 0 0 2 1 0 0 1 1 2 3 6 8 2 0 0 0 0 0
0 2 0 2 7 0 0 0 0 0 0 5 0 0 0 0 0 3 8 0 0 1 0 1 0 0 1 0 0 0 0 6 8 3 0 0 0 0
0 0 2 2 2 1 0 0 0 0 3 1 0 0 0 0 19 2 8 0 0 0 0 0 0 0 0 0 0 0 0 0 0 4 7 1 0 0
0 0 0 0 2 0 0 0 1 0 0 0 1 0 0 0 0 0 3 7 0 0 0 0 1 0 0 0 0 0 0 0 0 0 0 1 3 4
0 0 0 0 0 1 0 0 0 0 0 0 0 0 0 0 0 0 0 2 0 0 0 0 1 0 0 0 0 0 0 0 0 0 0 0 1 2
0 0 0 0 0 0 0 0 0 1 1 0 0 0 0 0 0 0 0 0 0 0 0 0 1 0 0 1 1 0 0 0 0 0 0 0 0 0
0 0 0 0 0 0 0 0 0 0 0 0 0 0 0 0 0 0 0 0 0 4 0 0 1 0 0 0 0 0 1 0 0 0 0 0 0 0
0 0 1 1 1 1 0 0 0 0 1 0 0 0 0 0 0 0 0 0 0 0 4 1 0 2 6 3 0 1 2 0 0 0 0 0 0 0
0 0 1 1 2 2 1 1 0 0 0 0 0 0 0 0 0 0 0 0 0 0 1 0 0 0 0 2 4 8 12 12 5 0 0 0 0 0
1 3 2 3 3 2 2 2 2 1 1 0 0 1 0 0 0 0 0 0 0 0 0 0 0 2 4 2 1 7 16 5 0 0 0 0 0 0
0 1 2 2 2 2 1 2 2 2 2 1 1 0 0 0 0 0 0 0 0 0 0 0 0 1 12 2 1 1 0 0 0 0 0 0 0 0
0 1 1 2 2 2 1 1 1 1 1 2 1 1 1 0 0 1 1 1 1 0 0 0 0 0 6 1 0 4 0 0 0 0 0 0 0 0
0 1 1 1 2 2 1 1 1 0 1 1 2 2 1 2 0 1 1 1 0 1 0 0 0 0 1 0 0 1 2 0 0 0 0 0 0 0
0 1 2 2 2 2 1 1 1 1 0 0 1 2 3 1 1 1 1 1 0 1 1 0 0 1 0 0 0 1 2 1 1 0 0 0 0 0
0 1 1 2 2 1 1 0 0 0 0 0 0 1 3 3 2 1 1 1 1 1 1 0 0 0 0 0 0 2 1 0 1 0 0 1 0 0
CIN
-0 -0 -1 -11 -16 -20 -36 -16 -6 -0 -0 -0 -17 -63 -42 -44 -18 -15 -0 -0 -0 -0 -0 -0 -0 -0 -2 -0 -0 -0 -1 -1 -1 -1 -4 -3 -0 -0
-0 -0 -6 -6 -23 -31 -34 -21 -15 -6 -0 -0 -0 -52 -40 -39 -23 -0 -0 -0 -0 -0 -0 -0 -0 -0 -0 -0 -2 -0 -0 -0 -1 -0 -0 -0 -26 -17
-0 -0 -5 -11 -19 -20 -30 -14 -9 -12 -5 -0 -0 -84 -63 -30 -23 -0 -0 -0 -0 -0 -0 -0 -0 -0 -0 -0 -5 -1 -1 -0 -1 -0 -0 -0 -0 -0
-0 -0 -20 -16 -16 -19 -24 -17 -8 -10 -17 -8 -0 -0 -49 -8 -11 -0 -0 -0 -0 -0 -0 -0 -0 -0 -0 -0 -0 -0 -0 -0 -0 -0 -1 -0 -0 -0
-0 -16 -10 -6 -11 -17 -23 -22 -0 -0 -0 -16 -0 -0 -0 -7 -0 -0 -0 -0 -0 -0 -0 -0 -0 -0 -0 -0 -0 -0 -0 -0 -0 -0 -0 -1 -0 -0
-0 -16 -12 -0 -22 -4 -13 -0 -0 -0 -0 -27 -18 -16 -3 -0 -0 -0 -0 -0 -0 -0 -0 -1 -0 -0 -0 -0 -0 -0 -0 -0 -0 -0 -0 -0 -0 -0
-0 -17 -7 -5 -1 -4 -3 -0 -0 -0 -0 -5 -17 -1 -0 -0 -0 -0 -0 -0 -0 -0 -0 -0 -0 -0 -0 -0 -0 -0 -0 -0 -0 -0 -0 -0 -168 -113
-0 -17 -19 -11 -3 -0 -0 -0 -0 -0 -0 -0 -0 -0 -0 -0 -0 -0 -0 -0 -0 -0 -0 -0 -0 -0 -0 -0 -0 -0 -0 -0 -0 -0 -0 -0 -0 -0
-6 -4 -4 -0 -2 -0 -0 -0 -0 -0 -0 -3 -0 -0 -0 -0 -0 -0 -9 -0 -0 -0 -0 -0 -0 -0 -0 -0 -0 -0 -0 -0 -0 -0 -0 -0 -0 -0
-0 -1 -2 -2 -1 -2 -0 -0 -0 -0 -0 -3 -0 -0 -0 -0 -0 -35 -36 -0 -0 -0 -0 -0 -0 -0 -0 -0 -0 -0 -0 -0 -0 -0 -0 -0 -0 -0
-0 -0 -0 -1 -2 -2 -0 -0 -0 -0 -5 -29 -0 -0 -0 -1 -13 -21 -14 -5 -0 -0 -0 -0 -0 -0 -0 -0 -0 -0 -0 -0 -0 -0 -0 -0 -0 -0
-0 -0 -13 -14 -11 -1 -0 -0 -0 -0 -0 -0 -23 -0 -0 -0 -0 -0 -22 -14 -1 -0 -0 -0 -0 -0 -0 -0 -0 -0 -0 -0 -0 -0 -0 -0 -0 -0
-0 -0 -0 -0 -0 -18 -14 -0 -2 -0 -0 -1 -0 -0 -0 -0 -0 -0 -0 -33 -2 -0 -0 -0 -0 -0 -0 -0 -0 -0 -0 -0 -0 -0 -0 -0 -0 -0
-0 -0 -0 -0 -0 -0 -0 -1 -2 -4 -2 -0 -0 -0 -0 -0 -0 -0 -0 -0 -4 -5 -0 -0 -0 -0 -2 -0 -0 -0 -0 -0 -0 -0 -0 -0 -0 -0
-0 -0 -0 -0 -0 -0 -0 -0 -0 -0 -0 -0 -0 -0 -0 -0 -0 -0 -0 -0 -0 -20 -0 -0 -0 -0 -0 -0 -0 -0 -1 -0 -6 -0 -0 -0 -0 -0
-0 -0 -0 -0 -0 -0 -0 -0 -0 -0 -0 -0 -0 -0 -0 -0 -0 -0 -0 -0 -0 -0 -6 -1 -4 -0 -9 -10 -1 -2 -6 -1 -0 -0 -0 -0 -0 -0
-0 -0 -0 -0 -0 -0 -0 -0 -0 -0 -0 -0 -0 -0 -0 -0 -0 -0 -0 -0 -0 -0 -0 -0 -0 -0 -0 -6 -0 -2 -3 -4 -16 -4 -0 -0 -0 -0
-0 -0 -0 -0 -0 -0 -0 -0 -0 -0 -0 -0 -0 -1 -0 -0 -0 -0 -0 -0 -0 -0 -0 -0 -0 -2 -4 -10 -0 -2 -4 -8 -3 -0 -0 -0 -0 -0
-0 -0 -0 -0 -0 -0 -0 -0 -0 -0 -0 -0 -0 -0 -0 -0 -0 -0 -0 -0 -0 -0 -0 -0 -0 -4 -2 -7 -0 -0 -0 -0 -0 -0 -0 -0 -0 -0
-0 -0 -0 -0 -0 -0 -0 -0 -0 -0 -0 -0 -0 -0 -0 -0 -0 -0 -0 -0 -0 -0 -0 -0 -4 -0 -6 -7 -0 -0 -0 -0 -0 -0 -0 -0 -0 -0
-0 -0 -0 -0 -0 -0 -0 -0 -0 -0 -0 -0 -0 -0 -0 -0 -0 -0 -0 -0 -0 -0 -0 -0 -0 -0 -0 -0 -0 -0 -0 -0 -0 -0 -0 -0 -0 -0
-0 -0 -0 -0 -0 -0 -0 -0 -0 -0 -0 -0 -0 -0 -0 -0 -0 -0 -0 -0 -0 -0 -0 -0 -0 -2 -0 -0 -0 -0 -0 -0 -0 -0 -0 -0 -0 -0
-0 -0 -0 -0 -0 -0 -0 -0 -0 -0 -0 -0 -0 -0 -0 -0 -0 -0 -0 -0 -0 -0 -0 -0 -0 -0 -0 -0 -0 -0 -0 -0 -0 -0 -0 -0 -0 -0
Wind_Speed
31 33 28 25 28 28 30 33 39 43 43 37 40 35 34 33 30 33 36 34 36 36 37 14 30 29 28 30 36 41 48 44 42 43 46 44 42 44
34 36 33 27 27 30 30 32 33 37 42 41 40 37 35 34 27 34 35 37 36 36 35 25 32 32 32 28 31 32 31 39 40 43 45 46 45 44
37 35 34 32 29 29 32 34 33 33 40 40 37 36 36 35 29 33 36 35 33 35 34 35 32 31 29 28 29 27 26 29 32 41 43 44 45 45
35 34 36 33 30 31 32 34 33 35 36 40 36 36 36 34 30 34 37 34 34 32 32 31 31 29 28 26 25 26 22 27 32 39 44 44 44 44
34 33 35 34 33 33 31 32 33 36 35 33 35 32 34 33 34 31 34 35 33 30 29 29 26 24 24 25 24 24 28 31 31 38 43 44 44 43
34 34 35 36 36 32 31 32 34 37 35 35 34 34 32 33 33 34 36 33 33 27 26 25 24 22 23 25 22 23 25 24 9 34 38 41 43 46
33 35 35 38 35 32 31 35 37 37 36 36 35 33 32 34 34 33 34 33 31 22 26 24 25 24 24 24 21 20 15 5 4 15 21 21 23 23
30 34 35 37 34 33 33 35 36 37 37 36 33 33 33 32 31 35 33 31 29 23 25 23 21 22 21 20 21 20 14 7 4 4 3 1 4 7
31 34 34 35 31 29 32 35 35 34 33 31 30 30 31 32 34 34 31 30 30 29 25 22 22 20 18 17 20 19 16 12 10 7 4 3 2 3
35 34 32 32 31 27 33 37 34 32 28 28 30 31 29 33 32 32 30 28 28 19 22 19 18 17 16 14 17 18 19 14 12 11 10 9 8 4
35 34 33 33 34 33 36 33 31 30 24 27 27 29 28 29 30 26 25 25 25 22 20 19 18 16 15 13 12 13 15 17 14 13 15 15 14 11
35 35 33 34 34 35 31 30 28 28 26 25 19 21 25 25 24 22 23 24 22 20 19 20 16 17 16 14 12 11 9 9 13 15 11 11 13 10
33 35 33 35 35 32 30 25 24 19 21 23 25 25 22 24 24 24 24 24 22 20 20 20 18 17 16 13 12 10 9 7 7 6 9 11 15 8
33 35 34 39 36 31 29 26 25 28 25 27 27 26 23 23 25 24 24 23 23 25 24 22 21 19 16 14 12 10 7 6 5 4 5 6 9 9
30 34 35 36 35 32 33 31 29 26 25 27 27 25 22 23 24 23 23 22 23 19 18 20 22 19 15 14 10 10 4 5 5 4 4 6 5 5
32 31 31 32 32 31 33 30 27 26 26 26 26 24 23 22 22 21 20 20 18 18 15 16 13 14 16 14 11 7 7 7 4 5 4 5 6 6
32 30 31 32 32 31 29 29 28 28 25 23 21 20 22 22 21 19 18 17 15 17 17 13 10 8 9 12 10 9 6 2 6 5 5 5 7 7
35 32 31 28 27 28 28 28 26 24 20 18 18 16 18 20 19 18 17 16 14 14 14 13 13 11 11 8 7 10 3 1 4 5 5 5 5 8
32 32 26 25 23 17 17 19 20 23 23 18 16 15 15 18 17 18 17 17 16 14 18 17 15 16 13 12 10 3 3 1 4 5 6 6 6 8
26 24 27 19 11 15 16 19 16 15 18 19 17 13 12 12 15 17 17 16 15 15 18 17 15 13 14 14 8 7 6 5 5 5 6 7 8 7
22 27 20 10 13 14 15 16 13 8 5 8 9 10 9 10 12 16 16 15 15 14 16 17 16 13 9 10 10 8 7 8 8 7 8 9 11 13
25 22 12 13 11 12 15 15 8 9 6 7 6 9 9 11 10 16 14 14 15 15 17 17 17 17 16 14 11 11 8 7 7 9 10 11 14 14
25 14 15 16 10 10 14 12 8 6 5 6 5 8 9 11 19 20 19 17 17 15 16 16 16 15 14 13 10 8 5 6 7 7 9 9 7 6
Wind_Direction
342 338 344 346 340 340 338 335 322 310 317 332 328 337 341 343 346 345 346 342 334 332 333 348 276 260 242 233 230 230 246 256 257 255 251 252 250 249
340 334 339 345 342 336 336 336 334 328 314 325 329 334 339 341 348 346 347 338 335 326 308 291 301 310 292 235 226 219 213 260 257 253 250 248 249 249
334 334 335 338 339 337 334 334 334 335 323 328 333 337 339 341 344 345 346 343 338 322 312 318 313 317 311 298 263 212 205 205 241 252 248 245 246 247
338 335 332 335 338 335 335 333 334 336 334 326 334 337 339 343 347 343 341 347 334 322 313 320 333 318 319 310 298 283 198 200 203 210 239 242 244 244
345 340 335 334 335 334 334 334 335 334 336 338 335 339 340 343 341 346 342 338 330 318 314 315 310 311 314 317 306 291 271 209 199 209 222 234 239 243
348 342 337 334 332 334 335 334 333 333 336 335 337 335 337 340 342 338 328 331 319 312 315 313 309 309 321 327 310 293 266 248 177 218 220 226 229 229
351 345 339 330 332 336 334 331 329 330 332 332 332 335 335 335 336 333 326 316 314 328 317 322 328 320 327 331 324 317 294 3 295 262 252 244 242 242
353 347 342 337 336 333 333 331 330 329 328 329 326 327 330 331 334 318 317 314 314 326 304 313 311 328 330 332 339 344 349 5 10 327 314 279 235 225
354 350 347 341 341 340 337 334 333 334 333 332 329 325 327 327 322 308 309 310 301 292 298 308 327 330 325 339 352 358 4 16 40 52 50 59 95 167
355 353 353 352 351 351 340 335 336 336 338 337 333 328 320 315 307 304 304 307 302 322 313 306 313 324 327 332 356 8 20 22 35 53 67 74 77 94
1 360 357 355 351 348 341 344 345 345 348 345 341 335 325 313 307 312 311 310 306 309 310 294 297 315 321 308 318 353 13 26 35 45 63 76 79 80
4 5 3 0 355 353 356 355 354 355 354 355 5 360 335 318 311 318 316 313 317 314 310 296 296 299 297 294 311 322 338 355 27 38 46 61 73 81
5 3 4 360 358 2 2 7 8 11 9 4 357 348 341 313 301 301 304 306 305 303 304 297 289 281 276 279 279 298 319 336 356 6 42 49 59 64
5 2 3 355 357 4 6 9 9 4 6 358 352 347 335 317 298 289 288 292 293 265 274 284 272 265 270 264 268 274 307 325 355 358 2 22 40 43
6 2 359 357 3 4 358 2 4 10 10 360 351 345 337 323 306 305 300 297 300 304 307 299 265 263 262 263 260 257 291 304 338 359 8 14 13 357
5 5 4 2 5 10 4 5 8 9 6 360 351 345 335 330 321 318 315 309 317 324 326 332 304 271 256 252 241 243 262 271 355 12 4 354 352 346
5 8 6 6 5 8 10 11 10 2 4 7 6 5 343 331 328 324 325 318 321 328 347 306 302 292 265 237 232 248 257 326 39 27 17 1 338 331
8 8 7 10 11 10 8 10 12 15 21 27 20 20 4 345 342 323 325 324 330 339 324 269 258 257 241 252 271 242 244 10 21 18 15 12 325 305
11 13 15 13 12 15 15 16 17 13 12 22 28 29 16 356 352 319 318 321 328 335 269 258 253 238 221 224 244 278 175 296 15 355 336 313 300 298
16 16 13 15 3 12 14 11 13 18 15 15 23 38 42 50 2 324 317 325 328 298 254 247 248 237 223 228 226 254 293 305 324 318 319 314 300 308
16 12 12 339 1 12 16 17 19 25 37 36 49 48 77 49 24 320 321 324 289 277 247 236 237 236 231 230 234 256 302 332 299 301 301 298 283 277
13 11 345 358 2 13 16 17 16 24 39 43 60 43 79 67 44 298 312 291 261 250 235 234 233 231 237 239 242 246 275 293 327 349 333 297 273 272
12 359 2 8 353 357 8 8 9 18 38 58 100 125 107 120 175 183 190 222 204 227 224 216 226 228 232 234 239 248 265 275 295 331 333 321 331 334